Location: ?????
(42.2640°N, 43.4211°E)
Time: 14:48:12
(UTC+00:00)

H-2A R/B - Pass Details

Date: 07 August 2020
Orbit: 578 x 654 km, 98.5° (Epoch: 20 September)

Event Time Altitude Azimuth Distance (km) Brightness Sun altitude
Rises 00:28:59 0° 159° (SSE) 2,813 5.2 -15.9°
Reaches altitude 10° 00:31:09 10° 158° (SSE) 1,908 4.4 -15.6°
Maximum altitude 00:35:15 71° 74° (ENE) 620 2.2 -15.1°
Drops below altitude 10° 00:39:21 10° 351° (N) 1,903 5.0 -14.5°
Sets 00:41:30 0° 349° (N) 2,805 5.8 -14.2°
